Location: North Evanston
(42.0634°N, 87.6976°W)
Time: 13:31:57
(UTC+00:00)

Injun/Solrad 3 - Pass Details

Date: 10 May 2026
Orbit: 867 x 989 km, 66.8° (Epoch: 7 June)

Event Time Altitude Azimuth Distance (km) Brightness Sun altitude
Rises 06:22:44 0° 334° (NNW) 3,671 11.8 -29.7°
Reaches altitude 10° 06:25:33 10° 343° (NNW) 2,734 11.1 -29.6°
Maximum altitude 06:31:22 35° 49° (NE) 1,537 9.4 -29.4°
Enters shadow 06:36:40 12° 111° (ESE) 2,574 10.1 -29.2°
Drops below altitude 10° 06:37:12 10° 114° (ESE) 2,744 - -29.2°
Sets 06:40:01 0° 123° (ESE) 3,686 - -29.1°
